EST,Max TemperatureF,Mean TemperatureF,Min TemperatureF,Max Dew PointF,MeanDew PointF,Min DewpointF,Max Humidity, Mean Humidity, Min Humidity, Max Sea Level PressureIn, Mean Sea Level PressureIn, Min Sea Level PressureIn, Max VisibilityMiles, Mean VisibilityMiles, Min VisibilityMiles, Max Wind SpeedMPH, Mean Wind SpeedMPH, Max Gust SpeedMPH,PrecipitationIn, CloudCover, Events, WindDirDegrees
2013-2-1,64,52,41,36,31,18,76,47,28,30.37,30.29,30.24,10,10,10,14,6,21,0.00,0,,282
2013-2-2,64,48,32,43,26,16,93,49,18,30.39,30.29,30.17,10,10,2,9,3,,0.00,0,,285
2013-2-3,68,55,42,43,35,30,93,50,24,30.19,30.10,30.02,10,10,10,16,6,25,0.00,1,,268
2013-2-4,64,50,35,46,39,32,100,65,32,30.16,30.11,30.08,10,10,10,9,3,,0.00,0,,147
2013-2-5,73,58,42,54,48,41,100,72,38,30.12,30.06,30.02,10,9,1,12,2,17,0.00,3,,217
2013-2-6,77,67,57,57,55,54,94,71,44,30.18,30.13,30.06,10,10,10,10,2,,0.00,7,,139
2013-2-7,71,64,57,68,63,55,100,89,78,30.14,29.98,29.77,10,10,4,22,5,28,0.00,7,,134
2013-2-8,68,60,51,64,54,52,100,87,72,30.10,29.99,29.83,10,10,7,16,9,24,0.00,6,,276
2013-2-9,64,52,41,52,44,32,100,76,32,30.32,30.24,30.10,10,9,0,16,4,18,0.00,0,,36
2013-2-10,73,57,41,63,53,41,100,78,50,30.34,30.27,30.18,10,9,2,16,5,22,0.00,1,,137
2013-2-11,80,73,64,66,63,61,94,75,54,30.21,30.14,30.08,10,10,10,14,7,18,0.00,5,,174
2013-2-12,68,64,60,66,63,59,100,96,94,30.12,30.01,29.85,10,7,0,12,4,,0.00,8,Thunderstorm,60
2013-2-13,87,74,59,72,60,43,100,63,25,29.94,29.83,29.75,10,10,4,21,11,33,0.00,7,Thunderstorm,246
2013-2-14,59,52,46,52,47,45,94,79,67,30.11,30.04,29.94,10,10,10,9,4,,0.00,2,,305
2013-2-15,68,52,35,46,43,36,100,79,30,30.13,30.06,30.01,10,8,0,9,2,,0.00,0,,38
2013-2-16,59,50,41,46,39,19,100,75,37,30.15,29.98,29.92,10,9,0,20,4,29,0.00,2,,278
2013-2-17,53,42,32,28,19,9,87,46,16,30.37,30.27,30.16,10,10,10,14,6,22,0.00,0,,291
2013-2-18,59,44,28,37,31,19,100,65,22,30.45,30.37,30.26,10,10,10,10,2,9,0.00,0,,108
2013-2-19,77,59,41,63,52,37,100,77,44,30.25,30.12,30.00,10,9,0,17,5,28,0.00,4,,224
2013-2-20,68,52,37,54,38,27,100,68,23,30.21,30.14,30.09,10,8,0,10,2,,0.00,0,,277
2013-2-21,71,52,33,55,41,32,100,69,26,30.19,30.12,30.08,10,10,7,9,2,,0.00,0,,92
2013-2-22,75,67,59,70,65,54,100,88,78,30.10,30.07,30.01,10,10,5,9,4,,0.00,8,,82
2013-2-23,82,73,64,70,67,63,100,90,62,30.03,29.94,29.84,10,9,2,16,5,23,0.00,8,Thunderstorm,221
2013-2-24,77,68,59,64,57,41,100,77,28,30.01,29.96,29.85,10,10,10,9,4,,0.00,3,,289
2013-2-25,64,60,55,63,59,52,100,94,72,30.01,29.95,29.86,10,8,4,22,6,28,0.00,8,Thunderstorm,54
2013-2-26,80,68,57,72,59,46,100,73,34,29.87,29.72,29.64,10,8,2,18,11,29,0.00,4,,193
2013-2-27,62,58,53,54,46,41,88,64,48,29.98,29.91,29.82,10,10,10,15,10,22,0.00,0,,261
2013-2-28,69,58,48,46,41,32,87,57,26,29.97,29.92,29.85,10,10,10,18,9,28,0.00,0,,263